Tracking 31027 objects as of 19-Jul-2025
HD Live streaming from Space Station
objects crossing your sky now

DIRECTV 4S

Track DIRECTV 4S now!
DIRECTV 4S is classified as:


NORAD ID: 26985
Int'l Code: 2001-052A
Perigee: 36,060.9 km
Apogee: 36,098.0 km
Inclination: 5.4 °
Period: 1,450.7 minutes
Semi major axis: 42450 km
RCS: 15.4247 m2 (large)
Launch date: November 27, 2001
Source: United States (US)
Launch site: FRENCH GUIANA (FRGUI)

Direct broadcasting; 48 Ku-band; 300 local TV channels to 41 metropolitan communities through 11 C-band transponders.
Your satellite tracking list
Your tracking list is empty




NASA's NSSDC Master Catalog

Two Line Element Set (TLE):
1 26985U 01052A   25199.18441255 -.00000107  00000-0  00000-0 0  9993
2 26985   5.4050  75.7456 0004373  76.0335 132.9229  0.99261116 47757
Source of the keplerian elements: AFSPC